sat.trackr.live / text

‹ back to catalog

STARLINK-31269

NORAD 58844 · 2024-017U

PAYLOAD ACTIVE UNKNOWN

§ Identity

Operator
Country
US
Launch date
2024-01-24
Launch site
AFWTR
Launch vehicle
Mass (kg)
RCS (m²)

Purposes: comms

External: N2YO · Heavens-Above · Gunter

§ Orbital elements

Epoch: 2026-05-24T22:35:58.678368Z

Period
94.11 min
Inclination
53.1601°
Eccentricity
0.0001123
Mean motion
15.30195622 rev/d
Perigee alt
474.5 km
Apogee alt
476.0 km
Semi-major
6,853.4 km
B*
1.0467e-5
RAAN
300.2614°
Arg perigee
104.6447°
Mean anomaly
255.4678°
Rev number
13,044

§ Raw data

STARLINK-312691 58844U 24017U   26144.94165137 -.00000049  00000+0  10467-4 0  99912 58844  53.1601 300.2614 0001123 104.6447 255.4678 15.30195622130449

JSON: /api/v1/satellites/58844 · /tle

For live sub-satellite position, see the globe view (requires WebGL).

§ Visibility from observer

Set your observer location to see the next 7 days of passes ≥ 10°. The values pass through the URL so the page stays shareable.

No JS? Fill the form by hand. The geolocation button needs JavaScript.